This is the latest recevied weather packets stored in our database for station/object G4MDP-13. If no packets are shown the sender has not sent any weather packets the latest 10 day(s).
| Time | Temp. | Humidity | Pressure | Rain* | Wind** | Luminosity | Snow |
|---|---|---|---|---|---|---|---|
| 1778060117 | 13.89° C | 53% | 1006.9 hPa | 0 mm | - | - | - |
| 1778060057 | 13.89° C | 54% | 1006.7 hPa | 0 mm | - | - | - |
| 1778059157 | 12.22° C | 54% | 1006.8 hPa | 0 mm | - | - | - |
| 1778058317 | 12.22° C | 57% | 1006.8 hPa | 0 mm | - | - | - |
| 1778058257 | 12.22° C | 57% | 1006.9 hPa | 0 mm | - | - | - |
| 1778057357 | 11.67° C | 61% | 1006.6 hPa | 0 mm | - | - | - |
| 1778056517 | 11.67° C | 61% | 1007 hPa | 0 mm | - | - | - |
| 1778056457 | 11.11° C | 61% | 1006.9 hPa | 0 mm | - | - | - |
| 1778055557 | 10.56° C | 65% | 1006.7 hPa | 0 mm | - | - | - |
| 1778054717 | 11.11° C | 67% | 1012.6 hPa | 0 mm | - | - | - |
| 1778054657 | 10.56° C | 67% | 1012.8 hPa | 0 mm | - | - | - |
| 1778053757 | 10.56° C | 69% | 1007 hPa | 0 mm | - | - | - |
| 1778052917 | 10.56° C | 70% | 1006.6 hPa | 0 mm | - | - | - |
| 1778052857 | 10.56° C | 70% | 1006.6 hPa | 0 mm | - | - | - |
| 1778051957 | 10° C | 73% | 1006.8 hPa | 0 mm | - | - | - |
| 1778051117 | 9.44° C | 75% | 1006.6 hPa | 0 mm | - | - | - |
| 1778051057 | 9.44° C | 76% | 1006.6 hPa | 0 mm | - | - | - |
| 1778050160 | 9.44° C | 77% | 1006.6 hPa | 0 mm | - | - | - |
| 1778050158 | 9.44° C | 77% | 1006.6 hPa | 0 mm | - | - | - |
| 1778049317 | 9.44° C | 76% | 1006.4 hPa | 0 mm | - | - | - |
| 1778049261 | 9.44° C | 76% | 1006.6 hPa | 0 mm | - | - | - |
| 1778049258 | 9.44° C | 76% | 1006.6 hPa | 0 mm | - | - | - |
| 1778048358 | 9.44° C | 76% | 1006.4 hPa | 0 mm | - | - | - |
| 1778048357 | 9.44° C | 76% | 1006.4 hPa | 0 mm | - | - | - |
| 1778047517 | 9.44° C | 78% | 1006.2 hPa | 0 mm | - | - | - |
* Rain latest hour (hover to see other rain measurements)
** Current wind speed in m/s (hover to see current wind gust speed)